GW6788 Weather Reports


time (UTC)temp
F
wind
direction
speed
knots
gust
knots
rain 1hr
in
rain 24hr
in
rain mn
in
humidity
%
barometer
mb
20260504211008 78 274 4.3 7.8 0.00 0.00 0.00 33 1014.1
20260504210512 78 259 4.3 11.3 0.00 0.00 0.00 31 1014.1
20260504210029 78 7 4.3 11.3 0.00 0.00 0.00 33 1014.1
20260504205504 78 289 4.3 10.4 0.00 0.00 0.00 32 1014.2
20260504205004 77 249 3.5 10.4 0.00 0.00 0.00 33 1014.2
20260504204539 77 227 4.3 10.4 0.00 0.00 0.00 32 1014.2
20260504204006 77 194 5.2 9.6 0.00 0.00 0.00 32 1014.3
20260504203507 77 234 3.5 11.3 0.00 0.00 0.00 32 1014.4
20260504203020 78 269 7.0 11.3 0.00 0.00 0.00 30 1014.5
20260504202507 78 285 2.6 10.4 0.00 0.00 0.00 32 1014.6
20260504202007 77 173 4.3 8.7 0.00 0.00 0.00 32 1014.6
20260504201526 77 247 5.2 8.7 0.00 0.00 0.00 32 1014.7
20260504201009 77 248 2.6 9.6 0.00 0.00 0.00 32 1014.7
20260504200507 77 234 6.1 9.6 0.00 0.00 0.00 31 1014.9
20260504200028 77 232 0.9 10.4 0.00 0.00 0.00 33 1014.9
20260504195508 77 135 3.5 10.4 0.00 0.00 0.00 32 1015.0
20260504195007 77 260 6.1 11.3 0.00 0.00 0.00 33 1015.0
20260504194518 77 262 2.6 11.3 0.00 0.00 0.00 33 1015.0
20260504194005 77 270 3.5 8.7 0.00 0.00 0.00 32 1015.1
20260504193505 77 278 4.3 7.0 0.00 0.00 0.00 34 1015.2
20260504193021 77 187 2.6 7.0 0.00 0.00 0.00 33 1015.2
20260504192506 77 179 4.3 7.0 0.00 0.00 0.00 34 1015.3
20260504192007 76 194 2.6 6.1 0.00 0.00 0.00 36 1015.3
20260504191524 77 215 2.6 8.7 0.00 0.00 0.00 33 1015.4
20260504191007 77 262 3.5 8.7 0.00 0.00 0.00 34 1015.5
20260504190507 77 296 5.2 8.7 0.00 0.00 0.00 33 1015.5
20260504190035 76 280 3.5 7.0 0.00 0.00 0.00 34 1015.7
20260504185511 76 187 1.7 7.0 0.00 0.00 0.00 35 1015.7
20260504185009 75 230 3.5 7.0 0.00 0.00 0.00 36 1015.7
20260504184521 75 216 1.7 9.6 0.00 0.00 0.00 34 1015.9
20260504184004 75 240 7.0 9.6 0.00 0.00 0.00 34 1016.0
20260504183505 75 257 4.3 7.8 0.00 0.00 0.00 35 1015.9
20260504183014 75 206 4.3 12.2 0.00 0.00 0.00 38 1016.0
20260504182505 75 244 1.7 12.2 0.00 0.00 0.00 35 1016.1
20260504182004 75 252 6.1 9.6 0.00 0.00 0.00 36 1016.1
20260504181503 74 207 1.7 7.0 0.00 0.00 0.00 36 1016.2
20260504181004 74 228 1.7 7.0 0.00 0.00 0.00 35 1016.2
20260504180504 75 245 2.6 3.5 0.00 0.00 0.00 36 1016.2
20260504180007 74 36 0.9 6.1 0.00 0.00 0.00 36 1016.2
20260504175503 74 214 3.5 7.0 0.00 0.00 0.00 35 1016.3
20260504175004 74 274 2.6 7.0 0.00 0.00 0.00 35 1016.2
20260504174510 74 172 1.7 5.2 0.00 0.00 0.00 35 1016.2
20260504174003 74 227 1.7 7.0 0.00 0.00 0.00 35 1016.2
20260504173506 73 223 1.7 7.0 0.00 0.00 0.00 36 1016.3
20260504173014 74 275 5.2 7.0 0.00 0.00 0.00 35 1016.3
20260504172505 74 294 2.6 5.2 0.00 0.00 0.00 36 1016.3
20260504172006 73 106 1.7 5.2 0.00 0.00 0.00 35 1016.4
20260504171516 73 280 0.9 7.0 0.00 0.00 0.00 36 1016.5
20260504171004 73 300 2.6 7.0 0.00 0.00 0.00 36 1016.5
20260504170503 73 142 2.6 5.2 0.00 0.00 0.00 36 1016.7
20260504151007 67 355 0.9 6.1 0.00 0.00 0.00 41 1018.7
20260504150510 66 6 2.6 5.2 0.00 0.00 0.00 44 1018.6
20260504141007 62 124 0.0 1.7 0.00 0.00 0.00 55 1018.1
20260504140509 61 178 0.0 1.7 0.00 0.00 0.00 57 1018.2
20260504130507 53 177 0.0 1.7 0.00 0.00 0.00 69 1018.2
20260504110505 42 319 0.0 1.7 0.00 0.00 0.00 87 1017.7
20260504100508 43 353 0.0 1.7 0.00 0.00 0.00 85 1017.5
20260504082003 45 339 0.0 1.7 0.00 0.00 0.00 83 1017.4
20260504081504 45 339 0.0 1.7 0.00 0.00 0.00 83 1017.4
20260504081002 45 31 0.0 1.7 0.00 0.00 0.00 82 1017.4
20260504080503 45 31 0.0 1.7 0.00 0.00 0.00 82 1017.4
20260504050508 51 50 0.0 1.7 0.00 0.00 0.00 69 1017.7
20260504050023 51 50 0.0 1.7 0.00 0.00 0.00 69 1017.7
20260504045507 51 50 0.0 1.7 0.00 0.00 0.00 69 1017.6
20260504045009 51 44 0.9 1.7 0.00 0.00 0.00 69 1017.6
20260504044505 51 44 0.9 1.7 0.00 0.00 0.00 68 1017.6
20260504044003 52 31 0.9 1.7 0.00 0.00 0.00 68 1017.5
20260504043503 52 233 0.0 0.0 0.00 0.00 0.00 67 1017.3
20260504043015 52 233 0.0 1.7 0.00 0.00 0.00 66 1017.2
20260504042504 52 233 0.0 1.7 0.00 0.00 0.00 66 1017.2
20260504042005 53 233 0.0 1.7 0.00 0.00 0.00 66 1017.3
20260504041516 53 233 0.0 1.7 0.00 0.00 0.00 65 1017.4
20260504041006 53 233 0.0 1.7 0.00 0.00 0.00 64 1017.3
20260504040508 53 259 0.0 1.7 0.00 0.00 0.00 63 1017.4
20260504040024 54 228 0.0 1.7 0.00 0.00 0.00 62 1017.4
20260504035507 54 219 0.0 2.6 0.00 0.00 0.00 62 1017.4
20260504035009 53 280 0.9 2.6 0.00 0.00 0.00 61 1017.3
20260504034526 54 223 0.0 1.7 0.00 0.00 0.00 62 1017.3
20260504034009 54 221 0.0 1.7 0.00 0.00 0.00 62 1017.4
20260504033508 54 221 0.0 1.7 0.00 0.00 0.00 61 1017.5
20260504033008 55 202 0.0 1.7 0.00 0.00 0.00 60 1017.5
20260504032505 55 247 0.0 1.7 0.00 0.00 0.00 60 1017.5
20260504032008 55 247 0.0 1.7 0.00 0.00 0.00 60 1017.5
20260504031516 56 175 0.0 1.7 0.00 0.00 0.00 56 1017.5
20260504031005 56 168 0.9 1.7 0.00 0.00 0.00 56 1017.4
20260504030503 56 166 0.0 1.7 0.00 0.00 0.00 56 1017.4
20260504030025 56 172 0.0 1.7 0.00 0.00 0.00 57 1017.3
20260504025508 56 194 0.0 1.7 0.00 0.00 0.00 57 1017.3
20260504025006 57 225 0.0 1.7 0.00 0.00 0.00 55 1017.4
20260504024522 57 186 0.0 1.7 0.00 0.00 0.00 52 1017.3
20260504024008 58 185 0.9 1.7 0.00 0.00 0.00 50 1017.2
20260504023508 58 172 0.9 1.7 0.00 0.00 0.00 50 1017.3
20260504023029 58 166 0.9 1.7 0.00 0.00 0.00 50 1017.2
20260504022508 58 183 0.0 1.7 0.00 0.00 0.00 51 1017.2
20260504022003 58 235 0.9 1.7 0.00 0.00 0.00 51 1017.1
20260504021511 58 226 0.0 1.7 0.00 0.00 0.00 51 1017.1
20260504021004 58 220 0.0 1.7 0.00 0.00 0.00 50 1017.0
20260504020505 58 185 0.0 2.6 0.00 0.00 0.00 50 1016.8
20260504020020 59 172 0.9 2.6 0.00 0.00 0.00 47 1016.8
20260504015504 59 159 0.9 2.6 0.00 0.00 0.00 46 1016.7
20260504015009 59 170 0.9 2.6 0.00 0.00 0.00 47 1016.6
20260504014532 59 191 0.9 2.6 0.00 0.00 0.00 46 1016.6
20260504014007 59 138 0.9 1.7 0.00 0.00 0.00 46 1016.6
20260504013507 59 202 0.9 2.6 0.00 0.00 0.00 48 1016.5
20260504013034 60 237 0.9 2.6 0.00 0.00 0.00 45 1016.5
20260504012508 60 249 0.9 2.6 0.00 0.00 0.00 44 1016.5
20260504012009 60 212 0.9 1.7 0.00 0.00 0.00 44 1016.5
20260504011528 60 182 0.0 1.7 0.00 0.00 0.00 43 1016.5
20260504011010 61 199 0.9 2.6 0.00 0.00 0.00 42 1016.4
20260504010504 61 194 0.0 2.6 0.00 0.00 0.00 41 1016.3
20260504010019 61 186 0.9 2.6 0.00 0.00 0.00 41 1016.2
20260504005507 62 162 0.9 2.6 0.00 0.00 0.00 40 1016.2
20260504005006 62 151 0.9 2.6 0.00 0.00 0.00 40 1016.1
20260504004518 62 170 1.7 1.7 0.00 0.00 0.00 39 1016.1
20260504004008 63 143 0.9 3.5 0.00 0.00 0.00 38 1016.1
20260504003508 63 163 0.9 3.5 0.00 0.00 0.00 37 1016.0
20260504003025 63 227 0.9 3.5 0.00 0.00 0.00 37 1016.1
20260504002510 64 251 0.9 3.5 0.00 0.00 0.00 36 1016.0
20260504002007 64 237 0.9 4.3 0.00 0.00 0.00 36 1016.1
20260504001524 64 263 1.7 4.3 0.00 0.00 0.00 35 1016.0
20260504001008 65 229 0.9 3.5 0.00 0.00 0.00 34 1016.0
20260504000510 65 226 0.9 3.5 0.00 0.00 0.00 33 1015.9
20260504000010 65 261 1.7 2.6 0.00 0.00 0.00 34 1015.9
20260503235503 65 239 0.9 2.6 0.00 0.00 0.00 32 1015.9
20260503235004 65 235 0.9 3.5 0.00 0.00 0.00 33 1015.9
20260503234516 66 258 1.7 3.5 0.00 0.00 0.00 32 1015.9
20260503234006 66 242 1.7 5.2 0.00 0.00 0.00 31 1015.9
20260503233503 66 255 1.7 7.8 0.00 0.00 0.00 32 1015.9
20260503233009 66 244 2.6 7.8 0.00 0.00 0.00 31 1015.9
20260503232502 67 256 2.6 8.7 0.00 0.00 0.00 31 1015.8
20260503232004 67 232 3.5 8.7 0.00 0.00 0.00 30 1015.8
20260503231506 67 267 2.6 7.0 0.00 0.00 0.00 30 1015.8
20260503231002 67 266 2.6 7.8 0.00 0.00 0.00 29 1015.9
20260503230505 67 228 5.2 7.8 0.00 0.00 0.00 29 1015.9
20260503230008 68 254 4.3 7.0 0.00 0.00 0.00 30 1015.9
20260503225503 68 195 1.7 5.2 0.00 0.00 0.00 32 1016.0
20260503225003 68 241 2.6 6.1 0.00 0.00 0.00 32 1016.0
20260503224513 68 215 3.5 6.1 0.00 0.00 0.00 30 1015.9
20260503224006 68 268 3.5 6.1 0.00 0.00 0.00 30 1015.9
20260503223504 68 228 0.9 5.2 0.00 0.00 0.00 32 1016.0
20260503223017 68 272 2.6 6.1 0.00 0.00 0.00 31 1016.0
20260503222502 68 209 3.5 8.7 0.00 0.00 0.00 31 1016.0
20260503222002 68 266 3.5 8.7 0.00 0.00 0.00 31 1016.0
20260503221505 68 197 3.5 6.1 0.00 0.00 0.00 32 1016.1
20260503221005 68 261 4.3 6.1 0.00 0.00 0.00 32 1016.1
20260503220503 68 262 1.7 7.0 0.00 0.00 0.00 31 1016.1
20260503220007 68 220 1.7 7.0 0.00 0.00 0.00 31 1016.0
20260503215503 68 262 4.3 7.8 0.00 0.00 0.00 31 1016.1
20260503215006 68 263 1.7 7.8 0.00 0.00 0.00 32 1016.2
20260503214511 68 281 3.5 8.7 0.00 0.00 0.00 31 1016.4
20260503214005 67 240 4.3 8.7 0.00 0.00 0.00 31 1016.4
20260503213505 67 297 5.2 8.7 0.00 0.00 0.00 32 1016.5
20260503213016 67 263 5.2 8.7 0.00 0.00 0.00 32 1016.5
20260503212508 67 318 3.5 9.6 0.00 0.00 0.00 31 1016.6
20260503212007 67 284 4.3 9.6 0.00 0.00 0.00 31 1016.6
20260503211503 67 237 1.7 7.0 0.00 0.00 0.00 32 1016.7